Location: Chanadirtkari
(42.0467°N, 44.6950°E)
Time: 13:07:42
(UTC+00:00)

Daily predictions for brighter satellites

Satellite Brightness Start Highest point End
(mag) Time Altitude Azimuth Time Altitude Azimuth Time Altitude Azimuth
Cosmos 1812 Rocket 4.2 14:34:55 10° N 14:38:54 33° ENE 14:42:50 10° SE
Okean O Rocket 1.6 14:34:59 10° SSE 14:39:24 81° ENE 14:43:50 10° N
Iridium 4 Rocket 4.3 14:37:28 10° NNE 14:42:02 29° ENE 14:46:15 10° SE
X-37B 1.0 14:40:34 10° WNW 14:43:41 49° N 14:46:49 10° E
ISS -1.6 14:42:28 10° NW 14:44:47 17° N 14:47:07 10° NE
Cosmos 2278 Rocket 2.8 14:41:05 10° S 14:46:12 36° ESE 14:51:20 10° NE
CZ-4 R/B 2.6 14:43:38 10° ESE 14:46:40 21° ENE 14:49:41 10° NNE
NOSS 2-1 (E) 3.3 14:44:10 10° SW 14:47:29 61° NW 14:50:53 10° NNE
SKYMED 2 3.9 14:45:07 10° NNE 14:49:19 46° E 14:53:29 10° S
CORIOLIS 4.5 14:45:00 10° S 14:50:22 73° WSW 14:55:45 10° NNW
Okean-O 3.7 14:47:39 10° ESE 14:51:08 23° ENE 14:54:38 10° NNE
CZ-2C R/B 3.5 14:47:25 10° SE 14:52:36 47° ENE 14:58:03 10° N
CZ-4B R/B 3.7 14:47:50 10° S 14:53:23 68° WSW 14:59:03 10° NNW
ERS-2 3.2 14:51:25 10° NE 14:54:28 25° E 14:57:29 10° SSE
Cosmos 1346 Rocket 3.7 14:55:52 10° SSE 14:59:10 26° E 15:02:30 10° NE
Cosmos 1340 2.5 14:56:21 10° S 15:00:05 74° E 15:03:50 10° NNE
SMAP 4.5 14:56:53 10° S 15:01:18 43° W 15:05:46 10° NNW
Cosmos 1092 Rocket 3.9 14:58:47 10° S 15:04:56 79° E 15:11:05 10° N
ARGOS 4.1 15:01:12 10° ESE 15:05:30 25° ENE 15:09:50 10° N
Cosmos 1626 Rocket 4.3 15:07:35 10° SSW 15:11:55 57° W 15:16:18 10° N
Cosmos 1898 Rocket 4.0 15:07:10 10° SSW 15:12:23 65° WNW 15:17:36 10° NNE
SAR-Lupe-4 4.3 15:09:39 10° NNE 15:12:55 33° E 15:16:10 10° SSE
Cosmos 372 Rocket 4.2 15:08:48 10° S 15:13:46 49° ESE 15:18:49 10° NNE
Cosmos 1455 3.9 15:10:39 10° NNW 15:14:13 37° W 15:17:46 10° SSW
Cosmos 405 2.9 15:12:27 10° N 15:15:57 60° E 15:19:24 10° SSE
CZ-2C R/B 3.8 15:12:43 10° NE 15:17:06 23° E 15:21:27 10° SE
Cosmos 1680 Rocket 4.4 15:14:38 10° NNW 15:19:44 54° WSW 15:24:46 10° S
PSLV R/B 4.1 15:18:08 10° NNE 15:22:15 51° E 15:26:20 10° S
Meteor 2-15 4.4 15:17:47 10° N 15:23:54 60° E 15:29:57 10° SSE
Cosmos 2344 4.4 15:14:26 10° NNW 15:23:56 69° NE 15:37:12 10° SE
Meteor 1-11 4.2 15:19:26 10° S 15:25:05 71° E 15:30:42 10° NNE
Cosmos 1328 4.3 15:21:48 10° SSW 15:25:45 61° W 15:29:41 10° N
Meteor 2-8 Rocket 4.4 15:20:07 10° N 15:26:16 89° E 15:32:24 10° S
NOSS 3-1 (C) 4.4 15:19:33 10° NW 15:27:15 77° WSW 15:36:04 10° SSE
MOS 1 Rocket 3.1 15:23:42 10° N 15:28:00 83° WNW 15:32:22 10° SSW
CZ-2D R/B 3.5 15:24:37 10° S 15:28:26 71° WSW 15:32:17 10° NNW
SAR-Lupe-1 4.1 15:25:30 10° NNE 15:29:01 53° E 15:32:32 10° S
CZ-4B R/B 2.7 15:29:12 10° N 15:32:18 39° WNW 15:35:18 10° SW
Cosmos-2242 2.9 15:30:12 10° N 15:34:30 71° E 15:38:49 10° SSE
Cosmos 1937 Rocket 4.2 15:29:57 10° SW 15:35:10 56° WNW 15:40:26 10° NNE
Cosmos 2098 Rocket 4.4 15:28:21 10° S 15:35:44 88° E 15:43:01 10° N
COSMO-SKYMED 1 3.4 15:33:09 10° N 15:37:22 51° WNW 15:41:34 10° SSW
Cosmos 1758 Rocket 3.8 15:34:05 10° SSW 15:38:32 76° W 15:43:03 10° N
CSL-04 Debris 4.3 15:33:38 10° SE 15:38:45 47° ENE 15:43:54 10° N
Cosmos 2266 Rocket 4.4 15:37:46 10° SSE 15:43:24 37° E 15:48:58 10° NNE
SL-08 RB Rocket 4.2 15:43:09 33° E 15:43:44 34° ENE 15:47:47 10° N
H-2A R/B 1.9 15:40:24 10° SSE 15:45:26 77° ENE 15:50:38 10° N
Cosmos 1833 Rocket 2.6 15:40:26 10° NNW 15:46:05 89° WSW 15:51:42 10° SSE
Cosmos 1125 Rocket 4.0 15:42:24 10° SSE 15:47:05 35° E 15:47:56 33° E
USA 229 DEB 4.1 15:41:14 10° NW 15:48:36 75° WSW 15:56:19 10° SSE
USA 229 4.1 15:41:20 10° NW 15:48:43 76° WSW 15:56:27 10° SSE
Cosmos 2026 Rocket 4.5 15:43:01 10° SSW 15:49:04 62° W 15:55:16 10° N
Cosmos 2298 Rocket 4.1 15:43:59 10° S 15:49:09 55° ESE 15:52:24 22° NE
USA 290 2.6 15:47:49 10° NNW 15:50:58 63° WSW 15:54:06 10° S
Helios 1A Rocket 2.8 15:48:19 10° SSE 15:52:25 73° ENE 15:56:35 10° N
USA 276 3.7 15:52:21 10° SSW 15:54:18 25° S 15:54:18 25° S
Cosmos 1417 Rocket 4.4 15:49:59 10° N 15:56:15 74° E 16:02:32 10° SSE
Meteor 2-15 Rocket 4.4 15:50:46 10° N 15:56:58 86° E 16:03:07 10° S
Aureole 3 Rocket 4.2 15:54:41 10° NNW 15:57:53 39° W 16:01:53 10° SSW
In-Cosmos 22 Rocket 4.2 15:52:55 10° S 15:58:35 58° E 16:04:10 10° NNE
Cosmos 1553 Rocket 4.0 15:53:02 10° N 15:59:27 90° E 16:05:45 10° S
Cosmos 1241 Rocket 4.5 15:53:51 10° SSW 16:00:14 67° ESE 16:03:55 27° NE
YAOGAN 1 2.8 15:56:16 10° S 16:00:34 68° WSW 16:04:54 10° NNW
SJ-11-01 4.3 15:56:08 10° SSE 16:00:50 83° WSW 16:05:31 10° NNW
Cosmos 1943 Rocket 3.9 15:58:37 10° SSE 16:00:04 16° SE 16:00:04 16° SE
NOSS 3-1 (A) 4.4 15:56:39 10° NW 16:04:22 72° WSW 16:13:09 10° SSE
COSMOS 2406 3.9 15:59:21 10° NNW 16:04:59 55° WSW 16:10:33 10° S
Cosmos 2082 Rocket 2.1 16:00:04 10° NNW 16:05:48 73° ENE 16:09:39 21° SSE
Milstar 3 4.4 16:01:33 10° SSW 16:07:59 20° SSE 16:10:49 17° SE
Meteor 1-27 4.2 16:03:01 10° NNW 16:08:38 79° W 16:14:10 10° S
Meteor 2-21 4.4 16:03:51 10° S 16:09:46 57° E 16:15:46 10° NNE
Cosmos 1689 Rocket 3.8 16:09:43 26° NW 16:10:30 30° WNW 16:13:02 10° SW
Cosmos 2315 Rocket 4.4 16:11:44 10° N 16:16:39 42° NE 16:16:39 42° NE
Meteor 2-14 Rocket 4.3 16:11:57 10° S 16:17:54 64° E 16:23:56 10° NNE
Cosmos 883 Rocket 4.4 16:12:57 10° N 16:19:02 56° ENE 16:20:31 45° SE
CSL-04 Rocket 3.7 16:14:35 10° SSE 16:20:01 82° WSW 16:25:34 10° NNW
USA 234 4.5 16:18:32 23° NNE 16:20:04 25° N 16:25:12 10° NW
X-37B 2.2 16:17:15 10° WNW 16:19:18 35° W 16:19:18 35° W
CZ-4 R/B 3.3 16:17:56 10° SSW 16:21:30 30° W 16:25:04 10° NW
ISS -1.1 16:19:59 10° NW 16:20:52 14° NNW 16:20:52 14° NNW
Cosmos 1655 Rocket 4.0 16:19:31 10° S 16:25:44 84° W 16:32:00 10° N
S3M 3.9 16:19:44 10° N 16:25:52 82° W 16:32:00 10° S
Okean-O 4.3 16:23:23 10° SSW 16:27:24 34° W 16:31:28 10° NNW
Cosmos 2278 Rocket 3.7 16:25:08 10° WSW 16:30:15 34° WNW 16:35:18 11° N
Meteor 2-21 Rocket 4.3 16:26:48 10° S 16:41:19 - NNE 16:32:30 66° ESE
Cosmos 44 Rocket 4.1 16:39:10 10° SW 16:43:55 48° NW 16:44:33 45° NNW
ARGOS 4.2 16:40:24 10° S 16:45:29 44° W 16:50:38 10° NNW
Meteor 2-2 Rocket 4.4 16:43:20 10° NNW 16:49:19 78° W 16:51:13 46° S
CZ-2C R/B 3.5 16:52:21 11° N 16:57:37 50° WNW 17:03:00 10° SW
Cosmos 2297 4.4 17:04:55 10° SW 17:09:22 50° WSW 17:09:22 50° WSW
